Time,TemperatureF,DewpointF,PressureIn,WindDirection,WindDirectionDegrees,WindSpeedMPH,WindSpeedGustMPH,Humidity,HourlyPrecipIn,Conditions,Clouds,dailyrainin,SoftwareType,DateUTC
2013-01-31 00:14:00,33.9,25.0,30.01,SSW,197,1.0,9.0,71,0.00,,,1.01,weatherlink.com 1.10,2013-01-31 06:14:00,
2013-01-31 00:29:00,33.8,25.0,30.02,NNW,327,2.0,8.0,71,0.00,,,0.00,weatherlink.com 1.10,2013-01-31 06:29:00,
2013-01-31 00:44:00,33.5,25.0,30.02,West,268,2.0,8.0,72,0.00,,,0.00,weatherlink.com 1.10,2013-01-31 06:44:00,
2013-01-31 01:00:00,33.2,25.0,30.02,NNW,329,3.0,6.0,73,0.00,,,0.00,weatherlink.com 1.10,2013-01-31 07:00:00,
2013-01-31 01:15:00,32.6,24.0,30.01,WNW,294,3.0,7.0,72,0.00,,,0.00,weatherlink.com 1.10,2013-01-31 07:15:00,
2013-01-31 01:30:00,32.1,24.0,30.02,WNW,301,0.0,2.0,72,0.00,,,0.00,weatherlink.com 1.10,2013-01-31 07:30:00,
2013-01-31 01:45:00,31.6,24.0,30.03,North,8,0.0,3.0,73,0.00,,,0.00,weatherlink.com 1.10,2013-01-31 07:45:00,
2013-01-31 02:00:00,31.5,24.0,30.02,NNW,345,0.0,4.0,73,0.00,,,0.00,weatherlink.com 1.10,2013-01-31 08:00:00,
2013-01-31 02:15:00,31.1,24.0,30.03,NNW,345,0.0,1.0,75,0.00,,,0.00,weatherlink.com 1.10,2013-01-31 08:15:00,
2013-01-31 02:30:00,30.4,24.0,30.03,NNW,345,0.0,0.0,76,0.00,,,0.00,weatherlink.com 1.10,2013-01-31 08:30:00,
2013-01-31 02:45:00,29.8,24.0,30.03,NNW,345,0.0,1.0,78,0.00,,,0.00,weatherlink.com 1.10,2013-01-31 08:45:00,
2013-01-31 03:00:00,29.6,24.0,30.03,NNW,345,0.0,1.0,79,0.00,,,0.00,weatherlink.com 1.10,2013-01-31 09:00:00,
2013-01-31 03:15:00,29.7,24.0,30.03,NNW,345,0.0,0.0,78,0.00,,,0.00,weatherlink.com 1.10,2013-01-31 09:15:00,
2013-01-31 03:30:00,29.3,24.0,30.03,NNW,345,0.0,0.0,79,0.00,,,0.00,weatherlink.com 1.10,2013-01-31 09:30:00,
2013-01-31 03:45:00,28.9,24.0,30.03,NNW,345,0.0,0.0,81,0.00,,,0.00,weatherlink.com 1.10,2013-01-31 09:45:00,
2013-01-31 04:00:00,29.2,24.0,30.03,NNW,345,0.0,1.0,80,0.00,,,0.00,weatherlink.com 1.10,2013-01-31 10:00:00,
2013-01-31 04:15:00,29.0,24.0,30.03,NNW,345,0.0,0.0,81,0.00,,,0.00,weatherlink.com 1.10,2013-01-31 10:15:00,
2013-01-31 04:30:00,28.6,24.0,30.03,NNW,345,0.0,0.0,82,0.00,,,0.00,weatherlink.com 1.10,2013-01-31 10:30:00,
2013-01-31 04:45:00,29.0,24.0,30.03,NNW,345,0.0,2.0,81,0.00,,,0.00,weatherlink.com 1.10,2013-01-31 10:45:00,
2013-01-31 05:00:00,29.7,24.0,30.04,South,183,0.0,6.0,80,0.00,,,0.00,weatherlink.com 1.10,2013-01-31 11:00:00,
2013-01-31 05:15:00,29.8,24.0,30.05,South,183,0.0,3.0,79,0.00,,,0.00,weatherlink.com 1.10,2013-01-31 11:15:00,
2013-01-31 05:30:00,30.0,24.0,30.07,South,183,0.0,2.0,79,0.00,,,0.00,weatherlink.com 1.10,2013-01-31 11:30:00,
2013-01-31 05:45:00,30.3,24.0,30.08,South,185,0.0,3.0,78,0.00,,,0.00,weatherlink.com 1.10,2013-01-31 11:45:00,
2013-01-31 06:00:00,30.2,24.0,30.08,South,187,1.0,3.0,79,0.00,,,0.00,weatherlink.com 1.10,2013-01-31 12:00:00,
2013-01-31 06:15:00,30.3,25.0,30.09,South,187,0.0,1.0,79,0.00,,,0.00,weatherlink.com 1.10,2013-01-31 12:15:00,
2013-01-31 06:30:00,29.9,24.0,30.10,South,187,0.0,0.0,80,0.00,,,0.00,weatherlink.com 1.10,2013-01-31 12:30:00,
2013-01-31 06:45:00,29.5,25.0,30.10,South,187,0.0,2.0,82,0.00,,,0.00,weatherlink.com 1.10,2013-01-31 12:45:00,
2013-01-31 07:00:00,29.5,25.0,30.11,South,187,0.0,1.0,82,0.00,,,0.00,weatherlink.com 1.10,2013-01-31 13:00:00,
2013-01-31 07:15:00,29.6,25.0,30.11,South,187,0.0,1.0,83,0.00,,,0.00,weatherlink.com 1.10,2013-01-31 13:15:00,
2013-01-31 07:30:00,30.0,25.0,30.11,South,187,1.0,2.0,83,0.00,,,0.00,weatherlink.com 1.10,2013-01-31 13:30:00,
2013-01-31 07:45:00,32.1,27.0,30.12,South,187,0.0,3.0,80,0.00,,,0.00,weatherlink.com 1.10,2013-01-31 13:45:00,
2013-01-31 08:00:00,33.7,26.0,30.13,South,188,0.0,4.0,74,0.00,,,0.00,weatherlink.com 1.10,2013-01-31 14:00:00,
2013-01-31 08:15:00,34.3,26.0,30.14,West,274,1.0,4.0,71,0.00,,,0.00,weatherlink.com 1.10,2013-01-31 14:15:00,
2013-01-31 08:30:00,35.2,25.0,30.14,SW,217,1.0,4.0,67,0.00,,,0.00,weatherlink.com 1.10,2013-01-31 14:30:00,
2013-01-31 08:46:00,36.1,26.0,30.15,North,359,3.0,4.0,66,0.00,,,0.00,weatherlink.com 1.10,2013-01-31 14:46:00,
2013-01-31 09:01:00,37.2,25.0,30.16,SW,231,1.0,6.0,61,0.00,,,0.00,weatherlink.com 1.10,2013-01-31 15:01:00,
2013-01-31 09:16:00,37.5,25.0,30.16,NNW,339,1.0,6.0,61,0.00,,,0.00,weatherlink.com 1.10,2013-01-31 15:16:00,
2013-01-31 09:31:00,39.4,27.0,30.17,South,189,0.0,3.0,62,0.00,,,0.00,weatherlink.com 1.10,2013-01-31 15:31:00,
2013-01-31 09:46:00,40.4,27.0,30.17,South,185,2.0,7.0,60,0.00,,,0.00,weatherlink.com 1.10,2013-01-31 15:46:00,
2013-01-31 10:01:00,41.2,27.0,30.17,SW,224,2.0,6.0,57,0.00,,,0.00,weatherlink.com 1.10,2013-01-31 16:01:00,
2013-01-31 10:16:00,42.4,28.0,30.16,South,183,1.0,4.0,56,0.00,,,0.00,weatherlink.com 1.10,2013-01-31 16:16:00,
2013-01-31 10:31:00,43.1,27.0,30.16,SSW,196,1.0,5.0,54,0.00,,,0.00,weatherlink.com 1.10,2013-01-31 16:31:00,
2013-01-31 10:46:00,43.8,28.0,30.16,SSE,168,1.0,5.0,54,0.00,,,0.00,weatherlink.com 1.10,2013-01-31 16:46:00,
2013-01-31 11:01:00,44.7,27.0,30.15,SW,225,2.0,8.0,51,0.00,,,0.00,weatherlink.com 1.10,2013-01-31 17:01:00,
2013-01-31 11:16:00,45.7,28.0,30.14,SSW,197,1.0,6.0,50,0.00,,,0.00,weatherlink.com 1.10,2013-01-31 17:16:00,
2013-01-31 11:31:00,46.2,28.0,30.13,SW,223,1.0,7.0,49,0.00,,,0.00,weatherlink.com 1.10,2013-01-31 17:31:00,
2013-01-31 11:46:00,47.9,28.0,30.12,SSW,208,2.0,6.0,46,0.00,,,0.00,weatherlink.com 1.10,2013-01-31 17:46:00,
2013-01-31 12:01:00,48.9,27.0,30.12,South,172,11.0,11.0,42,0.00,,,0.00,weatherlink.com 1.10,2013-01-31 18:01:00,
2013-01-31 12:16:00,50.1,26.0,30.11,SE,146,3.0,5.0,40,0.00,,,0.00,weatherlink.com 1.10,2013-01-31 18:16:00,
2013-01-31 12:31:00,51.0,27.0,30.10,South,181,3.0,7.0,40,0.00,,,0.00,weatherlink.com 1.10,2013-01-31 18:31:00,
2013-01-31 12:46:00,51.5,26.0,30.09,SE,133,4.0,9.0,38,0.00,,,0.00,weatherlink.com 1.10,2013-01-31 18:46:00,
2013-01-31 13:01:00,53.0,27.0,30.08,SSW,199,2.0,9.0,36,0.00,,,0.00,weatherlink.com 1.10,2013-01-31 19:01:00,
2013-01-31 13:16:00,52.2,27.0,30.07,South,176,5.0,11.0,38,0.00,,,0.00,weatherlink.com 1.10,2013-01-31 19:16:00,
2013-01-31 13:31:00,53.5,28.0,30.06,South,172,1.0,10.0,38,0.00,,,0.00,weatherlink.com 1.10,2013-01-31 19:31:00,
2013-01-31 13:46:00,53.0,28.0,30.05,SSE,160,2.0,12.0,38,0.00,,,0.00,weatherlink.com 1.10,2013-01-31 19:46:00,
2013-01-31 14:01:00,53.7,29.0,30.06,South,169,3.0,7.0,39,0.00,,,0.00,weatherlink.com 1.10,2013-01-31 20:01:00,
2013-01-31 14:16:00,54.6,29.0,30.05,SSW,204,3.0,8.0,38,0.00,,,0.00,weatherlink.com 1.10,2013-01-31 20:16:00,
2013-01-31 14:31:00,54.4,30.0,30.04,SE,129,5.0,10.0,39,0.00,,,0.00,weatherlink.com 1.10,2013-01-31 20:31:00,
2013-01-31 14:46:00,54.4,30.0,30.04,SSW,210,3.0,9.0,40,0.00,,,0.00,weatherlink.com 1.10,2013-01-31 20:46:00,
2013-01-31 15:01:00,54.7,31.0,30.03,SSW,198,3.0,9.0,40,0.00,,,0.00,weatherlink.com 1.10,2013-01-31 21:01:00,
2013-01-31 15:17:00,55.2,30.0,30.04,South,188,1.0,8.0,39,0.00,,,0.00,weatherlink.com 1.10,2013-01-31 21:17:00,
2013-01-31 15:32:00,55.8,30.0,30.04,SSW,209,4.0,6.0,38,0.00,,,0.00,weatherlink.com 1.10,2013-01-31 21:32:00,
2013-01-31 15:47:00,55.3,31.0,30.05,SSW,201,3.0,7.0,40,0.00,,,0.00,weatherlink.com 1.10,2013-01-31 21:47:00,
2013-01-31 16:02:00,54.2,31.0,30.05,SW,220,2.0,7.0,42,0.00,,,0.00,weatherlink.com 1.10,2013-01-31 22:02:00,
2013-01-31 16:17:00,53.8,31.0,30.05,SSW,212,4.0,8.0,42,0.00,,,0.00,weatherlink.com 1.10,2013-01-31 22:17:00,
2013-01-31 16:32:00,53.5,31.0,30.06,SSE,150,5.0,12.0,43,0.00,,,0.00,weatherlink.com 1.10,2013-01-31 22:32:00,
2013-01-31 16:47:00,53.2,31.0,30.06,SSW,201,2.0,8.0,43,0.00,,,0.00,weatherlink.com 1.10,2013-01-31 22:47:00,
2013-01-31 17:02:00,53.0,30.0,30.06,South,187,2.0,8.0,42,0.00,,,0.00,weatherlink.com 1.10,2013-01-31 23:02:00,
2013-01-31 17:17:00,52.4,30.0,30.06,South,179,2.0,5.0,43,0.00,,,0.00,weatherlink.com 1.10,2013-01-31 23:17:00,
2013-01-31 17:32:00,52.0,30.0,30.06,SSW,194,3.0,8.0,43,0.00,,,0.00,weatherlink.com 1.10,2013-01-31 23:32:00,
2013-01-31 17:47:00,51.4,31.0,30.06,South,177,1.0,3.0,45,0.00,,,0.00,weatherlink.com 1.10,2013-01-31 23:47:00,
2013-01-31 18:02:00,50.9,32.0,30.07,South,191,1.0,4.0,48,0.00,,,0.00,weatherlink.com 1.10,2013-02-01 00:02:00,
2013-01-31 18:17:00,50.3,33.0,30.07,SSW,201,1.0,3.0,51,0.00,,,0.00,weatherlink.com 1.10,2013-02-01 00:17:00,
2013-01-31 18:32:00,50.0,33.0,30.07,SSW,197,0.0,4.0,52,0.00,,,0.00,weatherlink.com 1.10,2013-02-01 00:32:00,
2013-01-31 18:47:00,49.7,33.0,30.08,SSW,198,2.0,3.0,53,0.00,,,0.00,weatherlink.com 1.10,2013-02-01 00:47:00,
2013-01-31 19:02:00,49.1,33.0,30.08,SSW,197,1.0,3.0,54,0.00,,,0.00,weatherlink.com 1.10,2013-02-01 01:02:00,
2013-01-31 19:17:00,48.6,33.0,30.09,SSW,197,1.0,2.0,56,0.00,,,0.00,weatherlink.com 1.10,2013-02-01 01:17:00,
2013-01-31 19:32:00,48.5,33.0,30.09,SSW,197,1.0,3.0,56,0.00,,,0.00,weatherlink.com 1.10,2013-02-01 01:32:00,
2013-01-31 19:47:00,48.4,33.0,30.12,North,359,4.0,7.0,56,0.00,,,0.00,weatherlink.com 1.10,2013-02-01 01:47:00,
2013-01-31 20:02:00,48.9,32.0,30.14,NW,326,6.0,11.0,52,0.00,,,0.00,weatherlink.com 1.10,2013-02-01 02:02:00,
2013-01-31 20:17:00,47.6,30.0,30.15,West,264,5.0,17.0,50,0.00,,,0.00,weatherlink.com 1.10,2013-02-01 02:17:00,
2013-01-31 20:32:00,47.1,30.0,30.16,NNW,328,6.0,13.0,52,0.00,,,0.00,weatherlink.com 1.10,2013-02-01 02:32:00,
2013-01-31 20:47:00,46.7,30.0,30.17,NW,313,2.0,15.0,53,0.00,,,0.00,weatherlink.com 1.10,2013-02-01 02:47:00,
2013-01-31 21:02:00,45.0,32.0,30.19,WNW,295,3.0,16.0,60,0.00,,,0.00,weatherlink.com 1.10,2013-02-01 03:02:00,
2013-01-31 21:17:00,42.6,32.0,30.19,NW,324,6.0,12.0,67,0.00,,,0.00,weatherlink.com 1.10,2013-02-01 03:17:00,
2013-01-31 21:32:00,40.5,32.0,30.22,NNW,345,5.0,15.0,71,0.00,,,0.00,weatherlink.com 1.10,2013-02-01 03:32:00,
2013-01-31 21:47:00,39.0,31.0,30.24,NNW,337,5.0,12.0,72,0.00,,,0.00,weatherlink.com 1.10,2013-02-01 03:47:00,
2013-01-31 22:02:00,38.4,30.0,30.24,NW,318,10.0,11.0,72,0.00,,,0.00,weatherlink.com 1.10,2013-02-01 04:02:00,
2013-01-31 22:17:00,38.2,28.0,30.25,NW,316,6.0,14.0,66,0.00,,,0.00,weatherlink.com 1.10,2013-02-01 04:17:00,
2013-01-31 22:32:00,37.4,29.0,30.27,NNE,14,5.0,12.0,73,0.00,,,0.00,weatherlink.com 1.10,2013-02-01 04:32:00,
2013-01-31 22:47:00,36.1,30.0,30.28,NNW,328,11.0,14.0,78,0.00,,,0.00,weatherlink.com 1.10,2013-02-01 04:47:00,
2013-01-31 23:17:00,32.5,27.0,30.30,WNW,297,7.0,12.0,79,0.00,,,0.00,weatherlink.com 1.10,2013-02-01 05:17:00,
2013-01-31 23:32:00,31.3,24.0,30.30,North,354,3.0,7.0,73,0.00,,,0.00,weatherlink.com 1.10,2013-02-01 05:32:00,
2013-01-31 23:47:00,31.2,23.0,30.30,North,354,3.0,10.0,71,0.00,,,0.00,weatherlink.com 1.10,2013-02-01 05:47:00,